Time,TemperatureF,DewpointF,PressureIn,WindDirection,WindDirectionDegrees,WindSpeedMPH,WindSpeedGustMPH,Humidity,HourlyPrecipIn,Conditions,Clouds,dailyrainin,SoftwareType,DateUTC
2013-03-27 00:01:00,27.0,11.0,30.20,South,189,15.0,26.0,50,0.00,,,0.00,,2013-03-27 07:01:00,
2013-03-27 00:11:00,27.0,11.0,30.20,South,189,15.0,26.0,50,0.00,,,0.00,,2013-03-27 07:11:00,
2013-03-27 00:22:00,27.0,11.0,30.21,SSW,196,14.0,23.0,50,0.00,,,0.00,,2013-03-27 07:22:00,
2013-03-27 00:31:00,26.0,10.0,30.21,SSW,195,13.0,22.0,51,0.00,,,0.00,,2013-03-27 07:31:00,
2013-03-27 00:42:00,26.0,10.0,30.21,SSW,195,13.0,22.0,51,0.00,,,0.00,,2013-03-27 07:42:00,
2013-03-27 00:53:00,26.0,10.0,30.21,South,191,13.0,21.0,51,0.00,,,0.00,,2013-03-27 07:53:00,
2013-03-27 01:02:00,27.0,12.0,30.20,SSW,192,14.0,23.0,52,0.00,,,0.00,,2013-03-27 08:02:00,
2013-03-27 01:11:00,27.0,12.0,30.20,SSW,192,14.0,23.0,52,0.00,,,0.00,,2013-03-27 08:11:00,
2013-03-27 01:21:00,27.0,11.0,30.20,SSW,199,13.0,22.0,51,0.00,,,0.00,,2013-03-27 08:21:00,
2013-03-27 01:31:00,26.0,11.0,30.20,SSW,193,12.0,22.0,53,0.00,,,0.00,,2013-03-27 08:31:00,
2013-03-27 01:42:00,26.0,11.0,30.20,SSW,193,12.0,22.0,53,0.00,,,0.00,,2013-03-27 08:42:00,
2013-03-27 01:52:00,26.0,12.0,30.20,South,190,11.0,21.0,54,0.00,,,0.00,,2013-03-27 08:52:00,
2013-03-27 02:01:00,26.0,12.0,30.19,South,188,12.0,18.0,54,0.00,,,0.00,,2013-03-27 09:01:00,
2013-03-27 02:11:00,26.0,12.0,30.19,South,188,12.0,18.0,54,0.00,,,0.00,,2013-03-27 09:11:00,
2013-03-27 02:21:00,26.0,12.0,30.19,South,191,12.0,19.0,54,0.00,,,0.00,,2013-03-27 09:21:00,
2013-03-27 02:32:00,26.0,13.0,30.19,South,187,11.0,17.0,57,0.00,,,0.00,,2013-03-27 09:32:00,
2013-03-27 02:42:00,26.0,13.0,30.19,South,187,11.0,17.0,57,0.00,,,0.00,,2013-03-27 09:42:00,
2013-03-27 02:52:00,26.0,12.0,30.18,South,191,12.0,17.0,55,0.00,,,0.00,,2013-03-27 09:52:00,
2013-03-27 03:02:00,26.0,12.0,30.18,South,188,12.0,18.0,54,0.00,,,0.00,,2013-03-27 10:02:00,
2013-03-27 03:12:00,26.0,12.0,30.18,South,188,12.0,18.0,54,0.00,,,0.00,,2013-03-27 10:12:00,
2013-03-27 03:22:00,26.0,11.0,30.18,South,189,11.0,17.0,52,0.00,,,0.00,,2013-03-27 10:22:00,
2013-03-27 03:32:00,26.0,11.0,30.17,South,188,11.0,17.0,53,0.00,,,0.00,,2013-03-27 10:32:00,
2013-03-27 03:52:00,26.0,12.0,30.18,South,191,11.0,18.0,55,0.00,,,0.00,,2013-03-27 10:52:00,
2013-03-27 04:02:00,26.0,13.0,30.17,South,189,11.0,17.0,57,0.00,,,0.00,,2013-03-27 11:02:00,
2013-03-27 04:11:00,26.0,13.0,30.17,South,189,11.0,17.0,57,0.00,,,0.00,,2013-03-27 11:11:00,
2013-03-27 04:21:00,26.0,12.0,30.18,South,190,10.0,16.0,56,0.00,,,0.00,,2013-03-27 11:21:00,
2013-03-27 04:32:00,25.0,11.0,30.18,South,190,10.0,15.0,54,0.00,,,0.00,,2013-03-27 11:32:00,
2013-03-27 04:42:00,25.0,11.0,30.18,South,190,10.0,15.0,54,0.00,,,0.00,,2013-03-27 11:42:00,
2013-03-27 04:52:00,26.0,12.0,30.18,South,190,10.0,15.0,54,0.00,,,0.00,,2013-03-27 11:52:00,
2013-03-27 05:01:00,26.0,12.0,30.18,South,191,10.0,16.0,54,0.00,,,0.00,,2013-03-27 12:01:00,
2013-03-27 05:11:00,26.0,12.0,30.18,South,191,10.0,16.0,54,0.00,,,0.00,,2013-03-27 12:11:00,
2013-03-27 05:22:00,26.0,12.0,30.19,SSW,192,9.0,15.0,56,0.00,,,0.00,,2013-03-27 12:22:00,
2013-03-27 05:32:00,26.0,12.0,30.19,South,188,11.0,15.0,56,0.00,,,0.00,,2013-03-27 12:32:00,
2013-03-27 05:52:00,25.0,12.0,30.19,South,187,10.0,15.0,57,0.00,,,0.00,,2013-03-27 12:52:00,
2013-03-27 06:01:00,25.0,12.0,30.19,South,186,9.0,17.0,56,0.00,,,0.00,,2013-03-27 13:01:00,
2013-03-27 06:11:00,25.0,12.0,30.19,South,186,9.0,17.0,56,0.00,,,0.00,,2013-03-27 13:11:00,
2013-03-27 06:21:00,25.0,11.0,30.19,South,189,10.0,15.0,54,0.00,,,0.00,,2013-03-27 13:21:00,
2013-03-27 06:32:00,26.0,9.0,30.20,SSW,196,10.0,16.0,47,0.00,,,0.00,,2013-03-27 13:32:00,
2013-03-27 06:52:00,26.0,7.0,30.20,SSW,198,10.0,20.0,44,0.00,,,0.00,,2013-03-27 13:52:00,
2013-03-27 07:01:00,26.0,4.0,30.21,SSW,200,12.0,18.0,38,0.00,,,0.00,,2013-03-27 14:01:00,
2013-03-27 07:11:00,26.0,4.0,30.21,SSW,200,12.0,18.0,38,0.00,,,0.00,,2013-03-27 14:11:00,
2013-03-27 07:21:00,26.0,5.0,30.21,SSW,203,9.0,17.0,40,0.00,,,0.00,,2013-03-27 14:21:00,
2013-03-27 07:31:00,26.0,3.0,30.22,SSW,206,10.0,18.0,37,0.00,,,0.00,,2013-03-27 14:31:00,
2013-03-27 07:52:00,26.0,5.0,30.22,SSW,207,9.0,14.0,40,0.00,,,0.00,,2013-03-27 14:52:00,
2013-03-27 08:01:00,26.0,3.0,30.23,SSW,206,8.0,14.0,36,0.00,,,0.00,,2013-03-27 15:01:00,
2013-03-27 08:11:00,26.0,3.0,30.23,SSW,206,8.0,14.0,36,0.00,,,0.00,,2013-03-27 15:11:00,
2013-03-27 08:22:00,27.0,3.0,30.23,SSW,201,8.0,14.0,35,0.00,,,0.00,,2013-03-27 15:22:00,
2013-03-27 08:32:00,28.0,3.0,30.24,SSW,194,11.0,16.0,33,0.00,,,0.00,,2013-03-27 15:32:00,
2013-03-27 08:52:00,29.0,4.0,30.24,SSW,196,10.0,16.0,34,0.00,,,0.00,,2013-03-27 15:52:00,
2013-03-27 09:02:00,29.0,6.0,30.24,South,188,11.0,17.0,37,0.00,,,0.00,,2013-03-27 16:02:00,
2013-03-27 09:12:00,29.0,6.0,30.24,South,188,11.0,17.0,37,0.00,,,0.00,,2013-03-27 16:12:00,
2013-03-27 09:22:00,29.0,7.0,30.24,SSW,192,11.0,17.0,38,0.00,,,0.00,,2013-03-27 16:22:00,
2013-03-27 09:32:00,29.0,8.0,30.25,South,191,8.0,17.0,40,0.00,,,0.00,,2013-03-27 16:32:00,
2013-03-27 09:42:00,29.0,8.0,30.25,South,191,8.0,17.0,40,0.00,,,0.00,,2013-03-27 16:42:00,
2013-03-27 09:52:00,29.0,9.0,30.25,SSW,198,6.0,19.0,43,0.00,,,0.00,,2013-03-27 16:52:00,
2013-03-27 10:02:00,29.0,9.0,30.26,South,191,9.0,17.0,43,0.00,,,0.00,,2013-03-27 17:02:00,
2013-03-27 10:11:00,29.0,9.0,30.26,South,191,9.0,17.0,43,0.00,,,0.00,,2013-03-27 17:11:00,
2013-03-27 10:22:00,30.0,12.0,30.26,SSW,192,10.0,19.0,47,0.00,,,0.00,,2013-03-27 17:22:00,
2013-03-27 10:32:00,31.0,13.0,30.26,South,189,11.0,18.0,47,0.00,,,0.00,,2013-03-27 17:32:00,
2013-03-27 10:44:00,31.0,13.0,30.26,South,189,11.0,18.0,47,0.00,,,0.00,,2013-03-27 17:44:00,
2013-03-27 10:52:00,31.0,11.0,30.26,SSW,202,9.0,18.0,43,0.00,,,0.00,,2013-03-27 17:52:00,
2013-03-27 11:01:00,31.0,12.0,30.27,South,189,9.0,26.0,44,0.00,,,0.00,,2013-03-27 18:01:00,
2013-03-27 11:11:00,31.0,12.0,30.27,South,189,9.0,26.0,44,0.00,,,0.00,,2013-03-27 18:11:00,
2013-03-27 11:22:00,33.0,15.0,30.27,South,191,8.0,21.0,46,0.00,,,0.00,,2013-03-27 18:22:00,
2013-03-27 11:32:00,34.0,13.0,30.26,South,183,11.0,24.0,42,0.00,,,0.00,,2013-03-27 18:32:00,
2013-03-27 11:42:00,34.0,13.0,30.26,South,183,11.0,24.0,42,0.00,,,0.00,,2013-03-27 18:42:00,
2013-03-27 11:53:00,33.0,12.0,30.27,SSW,208,12.0,25.0,42,0.00,,,0.00,,2013-03-27 18:53:00,
2013-03-27 12:01:00,34.0,13.0,30.27,South,191,13.0,23.0,41,0.00,,,0.00,,2013-03-27 19:01:00,
2013-03-27 12:11:00,34.0,13.0,30.27,South,191,13.0,23.0,41,0.00,,,0.00,,2013-03-27 19:11:00,
2013-03-27 12:21:00,34.0,12.0,30.27,SSW,192,14.0,26.0,40,0.00,,,0.00,,2013-03-27 19:21:00,
2013-03-27 12:32:00,34.0,13.0,30.26,South,190,16.0,25.0,42,0.00,,,0.00,,2013-03-27 19:32:00,
2013-03-27 12:42:00,34.0,13.0,30.26,South,190,16.0,25.0,42,0.00,,,0.00,,2013-03-27 19:42:00,
2013-03-27 12:52:00,34.0,13.0,30.27,SSW,201,13.0,21.0,42,0.00,,,0.00,,2013-03-27 19:52:00,
2013-03-27 13:02:00,33.0,13.0,30.28,SSW,192,13.0,22.0,44,0.00,,,0.00,,2013-03-27 20:02:00,
2013-03-27 13:11:00,33.0,13.0,30.28,SSW,192,13.0,22.0,44,0.00,,,0.00,,2013-03-27 20:11:00,
2013-03-27 13:22:00,34.0,14.0,30.28,South,184,13.0,20.0,43,0.00,,,0.00,,2013-03-27 20:22:00,
2013-03-27 13:31:00,35.0,15.0,30.27,South,182,14.0,22.0,43,0.00,,,0.00,,2013-03-27 20:31:00,
2013-03-27 13:42:00,35.0,15.0,30.27,South,182,14.0,22.0,43,0.00,,,0.00,,2013-03-27 20:42:00,
2013-03-27 13:52:00,35.0,14.0,30.28,South,186,14.0,26.0,41,0.00,,,0.00,,2013-03-27 20:52:00,
2013-03-27 14:01:00,35.0,14.0,30.27,SSW,208,12.0,24.0,41,0.00,,,0.00,,2013-03-27 21:01:00,
2013-03-27 14:12:00,35.0,14.0,30.27,SSW,208,12.0,24.0,41,0.00,,,0.00,,2013-03-27 21:12:00,
2013-03-27 14:21:00,36.0,13.0,30.27,SSW,193,15.0,29.0,38,0.00,,,0.00,,2013-03-27 21:21:00,
2013-03-27 14:31:00,34.0,13.0,30.27,SSW,197,11.0,21.0,42,0.00,,,0.00,,2013-03-27 21:31:00,
2013-03-27 14:42:00,34.0,13.0,30.27,SSW,197,11.0,21.0,42,0.00,,,0.00,,2013-03-27 21:42:00,
2013-03-27 14:52:00,34.0,13.0,30.26,South,189,11.0,20.0,42,0.00,,,0.00,,2013-03-27 21:52:00,
2013-03-27 15:02:00,33.0,13.0,30.25,South,188,12.0,22.0,43,0.00,,,0.00,,2013-03-27 22:02:00,
2013-03-27 15:12:00,33.0,13.0,30.25,South,188,12.0,22.0,43,0.00,,,0.00,,2013-03-27 22:12:00,
2013-03-27 15:22:00,33.0,15.0,30.25,South,186,13.0,24.0,46,0.00,,,0.00,,2013-03-27 22:22:00,
2013-03-27 15:32:00,33.0,14.0,30.25,South,186,14.0,21.0,45,0.00,,,0.00,,2013-03-27 22:32:00,
2013-03-27 15:42:00,33.0,14.0,30.25,South,186,14.0,21.0,45,0.00,,,0.00,,2013-03-27 22:42:00,
2013-03-27 15:52:00,33.0,14.0,30.25,SSW,192,11.0,21.0,45,0.00,,,0.00,,2013-03-27 22:52:00,
2013-03-27 16:02:00,33.0,15.0,30.25,South,191,10.0,20.0,47,0.00,,,0.00,,2013-03-27 23:02:00,
2013-03-27 16:11:00,33.0,15.0,30.25,South,191,10.0,20.0,47,0.00,,,0.00,,2013-03-27 23:11:00,
2013-03-27 16:21:00,35.0,16.0,30.25,SSW,192,12.0,22.0,45,0.00,,,0.00,,2013-03-27 23:21:00,
2013-03-27 16:32:00,34.0,15.0,30.25,South,191,11.0,22.0,45,0.00,,,0.00,,2013-03-27 23:32:00,
2013-03-27 16:42:00,34.0,15.0,30.25,South,191,11.0,22.0,45,0.00,,,0.00,,2013-03-27 23:42:00,
2013-03-27 16:52:00,33.0,15.0,30.26,South,188,10.0,22.0,48,0.00,,,0.00,,2013-03-27 23:52:00,
2013-03-27 17:01:00,33.0,15.0,30.26,South,186,10.0,20.0,48,0.00,,,0.00,,2013-03-28 00:01:00,
2013-03-27 17:11:00,33.0,15.0,30.26,South,186,10.0,20.0,48,0.00,,,0.00,,2013-03-28 00:11:00,
2013-03-27 17:21:00,32.0,15.0,30.27,SSW,198,9.0,18.0,48,0.00,,,0.00,,2013-03-28 00:21:00,
2013-03-27 17:31:00,32.0,15.0,30.26,South,183,12.0,22.0,48,0.00,,,0.00,,2013-03-28 00:31:00,
2013-03-27 17:42:00,32.0,15.0,30.26,South,183,12.0,22.0,48,0.00,,,0.00,,2013-03-28 00:42:00,
2013-03-27 17:52:00,32.0,15.0,30.27,SSW,196,8.0,21.0,49,0.00,,,0.00,,2013-03-28 00:52:00,
2013-03-27 18:01:00,32.0,15.0,30.26,South,185,12.0,22.0,49,0.00,,,0.00,,2013-03-28 01:01:00,
2013-03-27 18:11:00,32.0,15.0,30.26,South,185,12.0,22.0,49,0.00,,,0.00,,2013-03-28 01:11:00,
2013-03-27 18:21:00,33.0,15.0,30.26,South,180,11.0,21.0,48,0.00,,,0.00,,2013-03-28 01:21:00,
2013-03-27 18:31:00,30.0,14.0,30.27,South,178,13.0,24.0,51,0.00,,,0.00,,2013-03-28 01:31:00,
2013-03-27 18:42:00,30.0,14.0,30.27,South,178,13.0,24.0,51,0.00,,,0.00,,2013-03-28 01:42:00,
2013-03-27 18:52:00,29.0,14.0,30.27,South,180,11.0,20.0,52,0.00,,,0.00,,2013-03-28 01:52:00,
2013-03-27 19:02:00,28.0,14.0,30.27,South,178,9.0,18.0,55,0.00,,,0.00,,2013-03-28 02:02:00,
2013-03-27 19:11:00,28.0,14.0,30.27,South,178,9.0,18.0,55,0.00,,,0.00,,2013-03-28 02:11:00,
2013-03-27 19:21:00,28.0,14.0,30.27,South,176,10.0,20.0,56,0.00,,,0.00,,2013-03-28 02:21:00,
2013-03-27 19:31:00,28.0,14.0,30.27,South,179,12.0,18.0,55,0.00,,,0.00,,2013-03-28 02:31:00,
2013-03-27 19:42:00,28.0,14.0,30.27,South,179,12.0,18.0,55,0.00,,,0.00,,2013-03-28 02:42:00,
2013-03-27 19:52:00,28.0,14.0,30.27,South,179,12.0,18.0,55,0.00,,,0.00,,2013-03-28 02:52:00,
2013-03-27 20:02:00,27.0,11.0,30.27,South,179,12.0,20.0,50,0.00,,,0.00,,2013-03-28 03:02:00,
2013-03-27 20:11:00,27.0,11.0,30.27,South,179,12.0,20.0,50,0.00,,,0.00,,2013-03-28 03:11:00,
2013-03-27 20:22:00,27.0,10.0,30.27,South,177,12.0,21.0,49,0.00,,,0.00,,2013-03-28 03:22:00,
2013-03-27 20:32:00,27.0,10.0,30.27,South,175,12.0,19.0,48,0.00,,,0.00,,2013-03-28 03:32:00,
2013-03-27 20:42:00,27.0,10.0,30.27,South,175,12.0,19.0,48,0.00,,,0.00,,2013-03-28 03:42:00,
2013-03-27 20:52:00,27.0,11.0,30.28,South,176,13.0,20.0,50,0.00,,,0.00,,2013-03-28 03:52:00,
2013-03-27 21:02:00,26.0,12.0,30.26,South,179,13.0,19.0,55,0.00,,,0.00,,2013-03-28 04:02:00,
2013-03-27 21:12:00,26.0,12.0,30.26,South,179,13.0,19.0,55,0.00,,,0.00,,2013-03-28 04:12:00,
2013-03-27 21:22:00,26.0,12.0,30.26,South,183,13.0,21.0,56,0.00,,,0.00,,2013-03-28 04:22:00,
2013-03-27 21:32:00,26.0,13.0,30.28,South,185,13.0,21.0,57,0.00,,,0.00,,2013-03-28 04:32:00,
2013-03-27 21:42:00,26.0,13.0,30.28,South,185,13.0,21.0,57,0.00,,,0.00,,2013-03-28 04:42:00,
2013-03-27 21:52:00,26.0,13.0,30.28,South,180,13.0,20.0,57,0.00,,,0.00,,2013-03-28 04:52:00,
2013-03-27 22:02:00,26.0,13.0,30.29,South,180,13.0,19.0,57,0.00,,,0.00,,2013-03-28 05:02:00,
2013-03-27 22:12:00,26.0,13.0,30.29,South,180,13.0,19.0,57,0.00,,,0.00,,2013-03-28 05:12:00,
2013-03-27 22:22:00,26.0,13.0,30.29,South,183,12.0,19.0,58,0.00,,,0.00,,2013-03-28 05:22:00,
2013-03-27 22:31:00,26.0,14.0,30.29,South,182,12.0,18.0,59,0.00,,,0.00,,2013-03-28 05:31:00,
2013-03-27 22:42:00,26.0,14.0,30.29,South,182,12.0,18.0,59,0.00,,,0.00,,2013-03-28 05:42:00,
2013-03-27 22:52:00,26.0,14.0,30.28,South,182,12.0,19.0,60,0.00,,,0.00,,2013-03-28 05:52:00,
2013-03-27 23:01:00,25.0,13.0,30.29,South,186,11.0,17.0,61,0.00,,,0.00,,2013-03-28 06:01:00,
2013-03-27 23:11:00,25.0,13.0,30.29,South,186,11.0,17.0,61,0.00,,,0.00,,2013-03-28 06:11:00,
2013-03-27 23:22:00,26.0,14.0,30.29,South,182,12.0,18.0,59,0.00,,,0.00,,2013-03-28 06:22:00,
2013-03-27 23:32:00,25.0,13.0,30.29,South,183,11.0,17.0,61,0.00,,,0.00,,2013-03-28 06:32:00,
2013-03-27 23:41:00,25.0,13.0,30.29,South,183,11.0,17.0,61,0.00,,,0.00,,2013-03-28 06:41:00,
2013-03-27 23:52:00,25.0,14.0,30.29,South,181,10.0,16.0,62,0.00,,,0.00,,2013-03-28 06:52:00,